Location: Sweet Grass
(48.9965°N, 111.9649°W)
Time: 07:51:35
(UTC+00:00)

EO-79 - Pass Details

Date: 01 April 2023
Orbit: 578 x 593 km, 98.0° (Epoch: 02 June)

Event Time Altitude Azimuth Distance (km) Brightness Sun altitude
Rises 10:37:35 0° 5° (N) 2,834 ? -23.0°
Reaches altitude 10° 10:39:57 10° 354° (N) 1,925 ? -22.7°
Enters shadow 10:42:51 28° 313° (NW) 1,125 ? -22.3°
